Previsão horária em Juárez

Hoje, 18 Junho, Sexta-feira

Tempo Temperatura Precipitação Vento Pressão Humidade
00:00 +26°C° 0 mm 1 m/s 726 mmHg 66%
01:00 +26°C° 0 mm 1 m/s 726 mmHg 67%
02:00 +25°C° 0 mm 1 m/s 725 mmHg 68%
03:00 +25°C° 0 mm 1 m/s 725 mmHg 69%
04:00 +25°C° 0 mm 1 m/s 725 mmHg 70%
05:00 +24°C° 0 mm 1 m/s 725 mmHg 70%
06:00 +26°C° 0 mm 1 m/s 726 mmHg 63%
07:00 +28°C° 0 mm 1 m/s 726 mmHg 57%
08:00 +30°C° 0 mm 1 m/s 726 mmHg 50%
09:00 +32°C° 0 mm 2 m/s 726 mmHg 43%
10:00 +34°C° 0 mm 2 m/s 726 mmHg 37%
11:00 +36°C° 0 mm 3 m/s 726 mmHg 31%
12:00 +36°C° 0 mm 3 m/s 725 mmHg 29%
13:00 +37°C° 0 mm 4 m/s 725 mmHg 28%
14:00 +37°C° 0 mm 4 m/s 724 mmHg 27%
15:00 +37°C° 0 mm 4 m/s 724 mmHg 28%
16:00 +36°C° 0 mm 4 m/s 724 mmHg 28%
17:00 +36°C° 0 mm 4 m/s 723 mmHg 29%
18:00 +34°C° 0 mm 3 m/s 723 mmHg 33%
19:00 +31°C° 0 mm 3 m/s 724 mmHg 38%
20:00 +30°C° 0 mm 3 m/s 724 mmHg 42%
21:00 +29°C° 0 mm 3 m/s 724 mmHg 51%
22:00 +28°C° 0 mm 3 m/s 724 mmHg 59%
23:00 +27°C° 0 mm 4 m/s 725 mmHg 68%

Amanhã, 19 Junho, Sábado

Tempo Temperatura Precipitação Vento Pressão Humidade
00:00 +26°C° 0 mm 3 m/s 724 mmHg 71%
01:00 +26°C° 0 mm 2 m/s 724 mmHg 75%
02:00 +25°C° 0 mm 1 m/s 724 mmHg 78%
03:00 +25°C° 0 mm 1 m/s 724 mmHg 79%
04:00 +25°C° 0 mm 1 m/s 724 mmHg 79%
05:00 +25°C° 0 mm 1 m/s 724 mmHg 79%
06:00 +27°C° 0 mm 1 m/s 724 mmHg 73%
07:00 +28°C° 0 mm 1 m/s 725 mmHg 66%
08:00 +30°C° 0 mm 1 m/s 725 mmHg 59%
09:00 +31°C° 0 mm 2 m/s 725 mmHg 55%
10:00 +32°C° 0 mm 2 m/s 725 mmHg 51%
11:00 +34°C° 0 mm 3 m/s 724 mmHg 46%
12:00 +35°C° 0 mm 4 m/s 724 mmHg 43%
13:00 +36°C° 0 mm 5 m/s 723 mmHg 39%
14:00 +37°C° 0 mm 5 m/s 723 mmHg 35%
15:00 +36°C° 0 mm 5 m/s 723 mmHg 38%
16:00 +35°C° 0 mm 4 m/s 722 mmHg 41%
17:00 +34°C° 0 mm 4 m/s 722 mmHg 44%
18:00 +33°C° 0 mm 3 m/s 723 mmHg 45%
19:00 +31°C° 0 mm 3 m/s 723 mmHg 47%
20:00 +31°C° 0 mm 2 m/s 723 mmHg 48%
21:00 +31°C° 0 mm 2 m/s 723 mmHg 50%
22:00 +30°C° 0 mm 2 m/s 723 mmHg 52%
23:00 +30°C° 0 mm 2 m/s 723 mmHg 54%

Depois de amanhã, 20 Junho, Domingo

Tempo Temperatura Precipitação Vento Pressão Humidade
00:00 +29°C° 0 mm 2 m/s 723 mmHg 58%
01:00 +29°C° 0 mm 2 m/s 722 mmHg 61%
02:00 +28°C° 0 mm 2 m/s 722 mmHg 64%
03:00 +28°C° 0 mm 2 m/s 722 mmHg 66%
04:00 +28°C° 0 mm 2 m/s 723 mmHg 68%
05:00 +27°C° 0 mm 1 m/s 723 mmHg 70%
06:00 +28°C° 0 mm 1 m/s 723 mmHg 66%
07:00 +30°C° 0 mm 1 m/s 723 mmHg 62%
08:00 +31°C° 0 mm 1 m/s 724 mmHg 58%
09:00 +32°C° 0 mm 1 m/s 723 mmHg 51%
10:00 +34°C° 0 mm 1 m/s 723 mmHg 44%
11:00 +36°C° 0 mm 1 m/s 723 mmHg 38%
12:00 +37°C° 0.1 mm 1 m/s 722 mmHg 35%
13:00 +39°C° 0.1 mm 1 m/s 721 mmHg 33%
14:00 +40°C° 0.1 mm 1 m/s 721 mmHg 31%
15:00 +40°C° 0 mm 2 m/s 721 mmHg 31%
16:00 +39°C° 0 mm 2 m/s 720 mmHg 32%
17:00 +39°C° 0 mm 2 m/s 720 mmHg 33%
18:00 +37°C° 0.2 mm 2 m/s 720 mmHg 40%
19:00 +35°C° 0.2 mm 3 m/s 721 mmHg 48%
20:00 +33°C° 0.2 mm 3 m/s 721 mmHg 56%
21:00 +31°C° 0 mm 3 m/s 721 mmHg 58%
22:00 +31°C° 0 mm 3 m/s 721 mmHg 61%
23:00 +30°C° 0 mm 3 m/s 721 mmHg 63%

21 Junho, Segunda-feira

Tempo Temperatura Precipitação Vento Pressão Humidade
00:00 +30°C° 0 mm 2 m/s 721 mmHg 66%
01:00 +29°C° 0 mm 2 m/s 721 mmHg 69%
02:00 +28°C° 0 mm 2 m/s 720 mmHg 72%
03:00 +28°C° 0 mm 2 m/s 720 mmHg 74%
04:00 +28°C° 0 mm 2 m/s 720 mmHg 75%
05:00 +27°C° 0 mm 2 m/s 720 mmHg 77%
06:00 +29°C° 0 mm 2 m/s 720 mmHg 70%
07:00 +31°C° 0 mm 1 m/s 721 mmHg 63%
08:00 +33°C° 0 mm 1 m/s 721 mmHg 56%
09:00 +35°C° 0 mm 1 m/s 721 mmHg 49%
10:00 +37°C° 0 mm 1 m/s 721 mmHg 41%
11:00 +41°C° 0 mm 2 m/s 721 mmHg 33%
12:00 +42°C° 0 mm 2 m/s 721 mmHg 29%
13:00 +43°C° 0 mm 2 m/s 720 mmHg 26%
14:00 +45°C° 0 mm 2 m/s 720 mmHg 22%
15:00 +44°C° 0 mm 4 m/s 719 mmHg 23%
16:00 +45°C° 0 mm 5 m/s 719 mmHg 24%
17:00 +44°C° 0 mm 6 m/s 719 mmHg 25%
18:00 +40°C° 0 mm 5 m/s 720 mmHg 34%
19:00 +36°C° 0 mm 4 m/s 720 mmHg 44%
20:00 +33°C° 0 mm 3 m/s 721 mmHg 53%
21:00 +31°C° 0 mm 2 m/s 721 mmHg 55%
22:00 +30°C° 0 mm 2 m/s 722 mmHg 57%
23:00 +30°C° 0 mm 1 m/s 722 mmHg 60%

22 Junho, Terça-feira

Tempo Temperatura Precipitação Vento Pressão Humidade
00:00 +29°C° 0.1 mm 1 m/s 722 mmHg 64%
01:00 +28°C° 0.1 mm 1 m/s 722 mmHg 68%
02:00 +27°C° 0.1 mm 1 m/s 723 mmHg 72%
03:00 +27°C° 0 mm 1 m/s 723 mmHg 72%
04:00 +27°C° 0 mm 1 m/s 723 mmHg 73%
05:00 +25°C° 0 mm 0 m/s 723 mmHg 74%
06:00 +28°C° 0 mm 1 m/s 724 mmHg 69%
07:00 +30°C° 0 mm 1 m/s 724 mmHg 63%
08:00 +31°C° 0 mm 1 m/s 725 mmHg 58%
09:00 +34°C° 0 mm 2 m/s 725 mmHg 53%
10:00 +35°C° 0 mm 2 m/s 725 mmHg 49%
11:00 +37°C° 0 mm 3 m/s 725 mmHg 44%
12:00 +38°C° 0 mm 4 m/s 724 mmHg 43%
13:00 +39°C° 0 mm 5 m/s 724 mmHg 42%
14:00 +40°C° 0 mm 6 m/s 723 mmHg 40%
15:00 +38°C° 0.4 mm 6 m/s 723 mmHg 45%
16:00 +36°C° 0.4 mm 6 m/s 723 mmHg 49%
17:00 +35°C° 0.4 mm 6 m/s 723 mmHg 54%
18:00 +33°C° 3 mm 5 m/s 723 mmHg 62%
19:00 +30°C° 3 mm 4 m/s 723 mmHg 70%
20:00 +29°C° 3 mm 2 m/s 724 mmHg 78%
21:00 +28°C° 0.2 mm 2 m/s 724 mmHg 78%
22:00 +28°C° 0.2 mm 2 m/s 724 mmHg 77%
23:00 +28°C° 0.2 mm 2 m/s 725 mmHg 77%

23 Junho, Quarta-feira

Tempo Temperatura Precipitação Vento Pressão Humidade
00:00 +28°C° 0 mm 2 m/s 724 mmHg 79%
01:00 +27°C° 0 mm 1 m/s 724 mmHg 81%
02:00 +27°C° 0 mm 1 m/s 724 mmHg 83%
03:00 +27°C° 0 mm 1 m/s 724 mmHg 84%
04:00 +26°C° 0 mm 1 m/s 724 mmHg 84%
05:00 +26°C° 0 mm 1 m/s 724 mmHg 85%
06:00 +28°C° 0 mm 1 m/s 725 mmHg 79%
07:00 +29°C° 0 mm 2 m/s 725 mmHg 73%
08:00 +30°C° 0 mm 2 m/s 725 mmHg 66%
09:00 +33°C° 0 mm 3 m/s 725 mmHg 59%
10:00 +35°C° 0 mm 4 m/s 725 mmHg 52%
11:00 +37°C° 0 mm 4 m/s 725 mmHg 44%
12:00 +39°C° 0.1 mm 5 m/s 724 mmHg 41%
13:00 +40°C° 0.1 mm 5 m/s 724 mmHg 39%
14:00 +41°C° 0.1 mm 6 m/s 723 mmHg 36%
15:00 +40°C° 0.1 mm 6 m/s 723 mmHg 37%
16:00 +40°C° 0.1 mm 6 m/s 723 mmHg 37%
17:00 +40°C° 0.1 mm 6 m/s 723 mmHg 38%
18:00 +38°C° 0 mm 7 m/s 723 mmHg 45%
19:00 +35°C° 0 mm 7 m/s 724 mmHg 53%
20:00 +33°C° 0 mm 7 m/s 724 mmHg 60%
21:00 +32°C° 0 mm 6 m/s 724 mmHg 64%
22:00 +30°C° 0 mm 5 m/s 724 mmHg 68%
23:00 +29°C° 0 mm 4 m/s 725 mmHg 72%
Mostrar mais

Necessitamos do seu Consentimento

A Meteoprog e os seus Fornecedores de Serviços podem armazenar e aceder a dados pessoais como cookies, identificadores do dispositivo ou outras tecnologias semelhantes existentes no seu dispositivo e processar estes dados para personalizar conteúdos e anúncios, assim como funcionalidades nas redes sociais e análise de tráfego.

  • Armazenar e/ou aceder a informações no seu dispositivo

    Os cookies, identificadores do dispositivo ou outras informações podem ser armazenados ou acedidos no seu dispositivo, para os fins acima indicados.

  • Anúncios e conteúdos personalizados, medição de anúncios e conteúdos, dados sobre o público-alvo e desenvolvimento de produtos

    Os anúncios e os conteúdos podem ser personalizados com base num perfil. Podem ser adicionados dados adicionais para uma maior personalização dos anúncios e dos conteúdos. A eficácia dos anúncios e dos conteúdos pode ser medida. Podem ser obtidas informações sobre o público que visualizou os anúncios e os conteúdos. Estes dados podem ser usados para desenvolver ou melhorar sistemas, softwares ou a experiência do utilizador.

Ao clicar em "Eu concordo”, permitirá o uso de cookies, identificadores do dispositivo e web beacons mencionados ou outras tecnologias semelhantes. As configurações do navegador do seu dispositivo podem ser alteradas.

Para certos fins, podem ser invocados interesses legítimos ao invés de consentimento. Pode ler mais informação sobre este assunto na nossa Política de Privacidade e Cookies.